Theta_e
339 349 351 355 363 365 369 365 359 358 354 354 353 355 359 358 360 365 353 354 353 354 353 353 349 349 347 347 345 346 349 349 349 350 352 352 352 352 354 353 353 351 351 352 351 351 348 342 335
346 352 344 357 360 372 369 361 359 357 352 353 353 355 359 360 353 353 354 353 351 352 353 352 348 348 346 345 345 348 352 353 351 350 350 352 352 349 353 354 353 353 354 353 351 350 350 353 353
350 352 350 356 365 371 366 359 352 354 352 353 354 352 358 358 353 352 352 351 351 353 352 352 345 347 345 345 346 347 348 347 348 350 349 350 352 345 346 350 352 352 353 353 353 354 350 348 346
350 356 355 366 367 364 357 359 354 355 354 353 353 356 355 353 352 351 351 351 349 351 351 348 345 350 350 350 345 348 350 349 346 341 340 341 346 342 341 344 350 352 351 349 347 351 352 350 351
351 357 364 370 363 357 356 355 354 356 355 354 353 357 359 352 350 350 349 348 350 350 347 352 344 349 348 349 349 350 352 352 345 334 334 335 336 340 340 342 343 348 348 348 348 345 343 345 349
353 357 361 360 357 357 352 355 354 353 354 355 355 356 356 351 351 350 350 351 350 349 345 353 348 349 350 350 353 351 353 352 345 343 332 330 330 330 332 339 342 346 349 350 346 347 344 346 344
352 358 358 353 355 354 349 351 353 354 356 355 353 358 353 352 351 350 352 354 354 349 349 353 351 353 351 351 351 353 353 352 348 346 332 331 330 334 331 333 339 343 346 347 350 350 344 346 344
347 350 352 352 352 350 352 352 349 353 356 352 352 357 354 353 352 351 351 354 351 348 348 349 353 353 348 349 353 352 353 351 347 344 340 336 337 333 334 332 338 343 345 348 351 352 350 345 346
343 346 351 349 351 354 348 347 345 347 355 354 353 351 349 353 351 352 352 354 353 353 352 351 350 351 350 349 351 352 351 348 346 344 343 335 336 333 334 334 336 344 344 348 350 351 352 350 350
338 342 347 345 346 349 349 348 346 350 354 357 354 350 349 352 352 353 353 353 352 352 353 353 350 350 351 349 348 350 350 351 347 346 344 340 336 335 336 335 334 339 343 346 348 349 350 350 345
338 343 340 340 341 349 350 347 345 353 356 355 355 352 349 351 352 353 352 352 352 352 351 352 350 347 351 352 350 342 346 341 341 343 345 344 342 341 336 335 338 341 341 342 339 343 344 344 344
336 338 340 340 340 348 350 349 350 351 355 353 351 350 349 348 349 352 351 352 352 351 350 351 350 349 351 352 351 344 344 342 343 343 343 346 344 343 342 335 335 337 338 339 341 341 344 343 345
335 337 338 340 338 341 342 348 350 346 353 351 351 350 349 348 347 349 350 351 351 350 351 351 349 349 348 348 349 348 348 344 343 343 344 344 345 343 343 342 338 339 337 335 338 344 346 346 345
335 336 336 337 338 338 343 347 346 348 352 352 351 350 348 347 346 347 348 349 349 349 350 351 349 349 348 348 349 348 349 347 346 345 344 343 347 345 343 344 343 343 343 339 341 344 345 346 346
334 336 337 337 335 339 342 347 348 350 353 353 351 350 349 347 347 346 347 348 348 348 350 350 348 349 349 350 350 350 348 342 340 348 344 345 347 347 347 346 344 343 344 345 347 345 345 347 344
335 338 342 340 336 337 334 342 345 344 352 354 353 351 350 348 346 347 347 347 349 348 350 352 353 352 351 351 352 351 350 349 346 346 344 345 346 346 347 347 347 345 344 345 344 345 344 346 346
337 338 343 342 336 336 334 341 342 342 348 352 353 352 351 349 346 347 347 348 349 348 351 350 352 350 349 350 353 351 351 351 349 347 344 344 346 348 347 348 346 348 347 347 346 346 347 346 346
338 337 335 337 334 333 330 330 336 341 340 349 350 352 351 351 348 348 347 348 349 350 350 352 353 352 352 353 353 351 352 350 350 348 347 343 346 344 340 344 348 348 347 348 347 348 345 348 346
330 331 332 333 333 332 331 330 330 332 339 344 346 351 351 351 349 349 348 348 350 351 350 353 353 354 354 354 353 353 352 350 347 343 348 345 347 347 344 341 347 349 348 347 348 348 347 346 346
330 330 333 333 332 330 329 330 331 335 335 339 344 351 350 350 350 350 350 350 351 352 352 355 353 353 354 356 354 354 352 352 350 350 349 348 343 344 344 344 348 346 344 347 348 348 346 347 347
330 332 332 331 331 331 330 342 343 342 342 340 336 347 349 350 351 351 351 351 353 355 354 358 357 355 354 355 354 356 356 352 352 354 352 349 345 344 351 345 345 344 346 349 348 346 344 346 346
331 331 331 332 330 330 330 347 349 346 344 342 340 338 347 348 352 351 350 348 346 356 355 356 361 357 355 351 346 348 357 354 353 352 353 352 349 345 346 348 344 343 344 347 347 345 344 345 347
332 331 331 332 330 329 332 349 347 345 340 340 344 343 341 352 354 350 347 341 349 353 360 360 361 360 359 357 347 354 358 355 354 352 351 353 354 350 349 350 345 345 343 343 343 342 343 346 346
331 330 330 329 330 333 339 343 343 349 347 340 339 344 345 346 351 346 340 340 345 348 360 362 362 362 361 362 359 358 358 356 355 354 352 356 354 353 351 351 350 347 346 345 345 343 343 347 348
331 327 328 336 344 342 337 346 342 343 343 341 341 343 345 342 342 341 343 345 339 343 357 364 364 366 364 364 363 359 360 357 356 357 354 355 353 354 351 349 350 351 349 348 346 347 346 345 344
328 328 328 342 344 344 342 351 348 343 339 339 341 350 359 357 353 347 348 345 341 345 355 360 360 364 366 366 365 363 363 360 359 356 355 353 353 353 352 351 342 351 350 350 350 349 349 347 348
327 328 327 333 337 342 347 346 344 345 345 343 344 362 357 352 355 353 356 356 354 353 353 359 362 362 361 362 364 363 364 363 363 360 358 356 355 341 353 350 337 346 351 352 351 351 349 350 350
330 329 330 334 345 359 354 354 355 346 348 346 362 361 358 352 341 341 354 352 353 354 354 358 362 361 363 362 362 362 361 362 362 362 359 359 356 350 354 353 350 351 351 351 351 351 351 350 350
330 328 330 333 337 346 353 353 348 345 339 342 358 352 343 339 332 341 349 350 349 353 354 355 360 361 362 362 362 362 362 362 362 362 360 358 357 355 356 353 351 351 351 352 350 350 350 350 350
335 337 336 337 339 340 346 348 343 342 342 342 354 354 349 334 339 348 349 339 343 349 352 351 353 352 352 354 355 360 361 360 359 356 358 358 357 355 351 342 350 347 353 352 352 351 349 349 349
Wind_Speed
8 12 4 9 5 1 3 1 1 7 11 11 16 13 12 7 4 5 24 32 31 29 28 28 27 28 30 31 28 28 27 26 26 25 23 22 22 21 19 19 18 17 16 15 14 14 14 17 16
11 10 15 3 4 3 3 6 8 10 11 15 18 19 18 15 16 21 20 36 34 31 29 28 29 29 29 30 29 27 25 25 25 24 24 21 22 23 18 17 16 15 14 13 12 12 10 12 12
26 27 4 2 2 5 0 5 10 17 18 14 13 13 8 10 20 10 36 34 30 30 27 27 28 31 29 28 28 27 27 26 24 22 22 20 19 24 19 17 14 13 12 11 10 9 9 7 8
13 7 3 3 6 7 11 10 22 2 16 18 16 11 10 25 12 25 37 34 33 30 25 26 27 28 27 26 27 25 24 23 22 21 21 20 18 20 19 16 13 10 9 9 8 7 7 4 4
8 3 1 5 5 6 15 12 17 9 18 21 17 16 17 22 38 37 37 32 33 31 28 26 26 26 27 26 25 23 21 20 19 18 18 17 16 16 15 14 11 8 6 6 5 4 4 4 5
3 3 2 3 6 8 5 16 13 13 14 18 17 16 13 35 31 33 31 32 32 27 29 25 24 26 25 25 23 22 19 18 17 15 15 14 12 10 7 9 9 6 4 3 1 2 2 3 4
7 8 2 4 2 4 8 17 13 9 8 12 14 17 13 21 31 34 34 28 24 25 27 24 23 22 22 21 21 19 17 16 15 14 13 13 10 2 8 8 4 5 2 1 2 3 4 4 6
5 4 5 4 4 4 8 6 3 9 6 16 18 7 12 20 31 34 33 29 32 30 26 25 24 23 22 20 19 18 17 15 14 11 11 10 8 11 6 14 5 1 2 2 4 6 7 7 8
8 5 3 3 4 14 17 6 5 4 4 4 4 14 20 38 37 28 28 28 28 29 27 27 23 22 22 20 17 17 16 13 10 10 10 10 11 10 10 18 12 4 4 5 7 8 9 9 10
5 5 4 6 6 13 14 9 1 3 2 15 17 17 25 37 30 24 21 24 27 30 30 30 26 24 22 20 21 19 17 14 10 11 14 14 12 13 12 16 18 11 8 10 11 10 11 12 13
4 4 8 7 4 19 12 7 10 4 2 16 18 16 14 29 24 23 22 31 31 31 31 33 26 27 27 25 25 22 19 17 15 15 13 14 11 9 12 16 16 16 16 14 11 12 15 16 14
10 5 8 6 3 16 10 8 15 11 10 17 18 16 13 10 19 25 24 26 28 31 33 33 31 29 32 29 29 23 29 22 19 16 17 18 15 13 12 19 22 21 21 16 15 17 16 15 14
8 2 9 9 7 7 5 15 15 14 18 20 17 15 13 10 14 27 32 33 31 28 32 34 34 33 32 31 29 18 24 25 18 18 17 17 20 15 16 14 18 19 24 22 16 15 17 21 15
4 5 7 9 7 5 6 7 8 9 19 19 18 15 12 10 12 20 23 29 30 23 36 30 33 31 28 24 24 19 24 24 19 22 20 15 18 17 16 17 20 20 19 21 22 18 16 15 16
5 6 1 7 5 3 7 7 1 15 19 20 18 16 16 12 17 18 23 27 32 27 35 35 33 30 24 21 20 17 20 17 19 24 20 20 17 17 18 19 17 21 19 20 18 21 17 14 17
7 4 3 3 8 5 7 5 8 14 19 19 20 17 14 12 15 23 21 31 34 29 32 37 32 29 26 22 21 17 15 17 19 26 21 21 21 15 18 19 17 15 19 21 20 19 18 19 19
5 2 6 6 7 6 6 5 8 11 16 18 18 18 16 11 12 22 22 30 32 31 33 35 31 31 28 25 21 17 15 16 21 25 24 23 20 15 12 18 18 12 12 15 20 16 13 20 16
7 6 7 7 8 6 3 8 3 12 10 17 15 18 16 13 12 23 25 23 31 32 34 34 32 31 29 23 19 15 16 18 19 24 23 19 18 15 9 18 18 15 15 14 12 12 16 11 15
8 3 3 1 6 4 3 5 10 5 11 13 11 15 16 16 14 28 28 25 24 27 34 30 32 32 29 24 23 21 20 23 21 21 22 18 18 20 21 16 21 19 18 16 13 10 11 15 13
8 7 5 5 4 4 7 9 9 7 3 8 12 16 17 16 13 19 25 27 29 30 32 27 31 31 29 28 27 21 20 21 19 17 19 21 21 23 24 22 22 20 18 16 14 14 11 11 12
6 1 4 0 3 4 6 5 7 6 10 14 7 15 16 20 18 19 10 25 26 32 35 31 33 32 28 28 24 14 13 11 17 17 18 19 22 23 22 21 21 20 21 18 17 14 14 13 12
4 4 4 7 4 5 6 4 6 7 8 10 6 9 15 7 24 17 7 10 19 33 36 34 31 30 25 23 21 21 20 18 21 23 23 19 20 23 24 23 22 21 22 22 18 16 16 14 16
8 6 5 4 6 5 5 6 6 7 5 6 9 8 10 23 16 23 13 23 24 11 34 34 31 29 24 22 24 21 21 19 17 21 22 19 18 22 24 27 23 25 23 21 22 19 19 17 18
7 4 8 6 2 3 6 6 4 5 6 6 14 13 14 25 21 20 27 16 35 23 27 32 30 26 24 20 20 24 21 21 19 19 21 22 23 23 25 27 28 26 25 25 24 26 24 21 21
4 3 4 5 4 4 2 6 8 6 11 11 15 13 18 18 17 14 8 28 18 21 26 32 30 27 26 24 23 25 21 20 18 19 21 22 23 24 25 25 27 30 30 27 27 26 29 29 27
7 4 4 2 3 2 11 4 10 9 10 5 9 6 17 12 7 17 13 20 11 25 28 28 29 27 25 23 23 22 22 21 18 17 19 22 23 22 19 10 19 34 32 29 29 30 30 30 28
10 5 9 4 3 5 3 3 5 14 15 17 4 13 11 14 3 11 11 23 13 16 26 29 31 32 24 20 19 20 20 20 20 20 19 23 21 17 15 24 23 32 31 29 28 34 33 32 30
3 5 6 4 3 4 4 0 4 3 17 15 14 11 8 5 5 6 8 22 25 21 20 18 24 23 24 20 22 21 21 21 20 20 20 20 23 19 13 22 20 25 28 25 25 30 31 29 31
2 5 4 1 3 5 4 5 8 13 19 12 10 10 8 7 6 4 8 23 30 27 22 13 9 16 17 19 16 23 22 20 19 20 20 21 20 18 16 9 16 17 20 22 25 26 27 29 28
7 6 5 4 4 3 6 5 13 16 20 9 12 8 8 6 4 4 15 19 23 25 28 20 16 14 11 10 9 11 22 20 20 17 16 13 16 17 15 23 21 15 16 18 18 19 21 24 27
Wind_Direction
45 65 4 40 41 70 289 97 85 357 79 81 62 79 78 40 103 143 138 141 139 135 137 133 133 134 135 129 128 124 120 120 119 116 111 109 105 97 98 98 94 92 95 97 98 103 111 114 115
45 110 22 104 91 287 254 170 66 60 89 89 75 87 70 72 88 116 116 138 138 138 139 140 141 140 140 136 136 129 124 121 123 125 119 112 111 107 91 88 89 93 96 93 98 106 111 119 122
72 86 59 36 146 218 224 38 62 64 67 86 77 78 77 107 122 114 135 136 139 136 143 142 145 145 146 142 138 136 132 130 131 126 118 116 112 111 106 96 88 90 91 96 103 105 106 122 146
131 71 104 280 207 252 94 233 84 87 112 108 110 77 99 130 114 134 137 139 139 142 147 146 147 148 149 145 145 142 138 135 135 134 131 127 114 109 108 105 92 89 92 101 106 112 117 124 153
110 91 73 261 199 339 49 62 91 56 101 99 98 94 110 111 124 133 137 140 137 147 148 149 150 152 155 151 150 147 142 141 147 148 146 140 133 112 111 109 109 94 98 100 97 119 142 174 202
131 113 217 27 27 329 26 90 80 52 95 101 104 103 108 127 132 133 134 130 143 145 148 148 154 157 157 162 157 157 150 153 153 153 156 158 156 159 151 115 121 114 112 101 137 201 197 228 249
232 127 194 120 190 3 61 99 58 82 140 144 123 116 132 135 138 136 134 142 141 143 148 150 154 156 160 161 166 164 162 162 161 165 171 173 166 175 242 204 156 142 134 218 245 251 256 257 263
182 107 167 153 139 145 95 66 39 72 180 133 133 142 159 152 142 141 145 143 140 149 155 158 159 161 163 166 165 167 172 172 174 190 200 198 217 222 248 219 197 212 218 251 268 259 270 283 283
130 84 308 141 102 73 67 72 62 241 105 109 136 134 146 148 148 137 147 147 143 152 159 161 163 167 170 169 165 169 176 184 195 206 229 232 218 225 261 222 214 209 239 267 262 261 274 285 290
92 109 133 131 131 128 102 28 216 66 6 112 122 131 143 145 143 147 144 147 154 158 162 168 168 167 169 173 180 182 184 194 202 228 235 245 240 240 249 214 219 241 252 264 267 263 273 274 284
111 134 91 54 27 116 135 164 166 182 228 120 124 135 147 146 153 152 157 164 171 171 170 174 175 171 172 179 175 183 208 209 211 213 234 251 247 251 227 218 224 241 256 259 266 273 275 273 277
92 82 109 124 274 130 155 129 58 320 129 128 134 144 155 164 165 162 175 172 180 173 175 174 179 179 179 182 186 180 197 205 198 209 222 230 236 244 243 229 229 234 242 254 268 273 275 275 272
106 180 142 150 217 142 175 127 138 212 118 122 133 151 164 183 175 164 174 173 181 174 176 179 184 184 185 184 181 178 208 202 201 199 210 230 231 238 242 239 235 242 247 250 258 268 265 282 279
158 224 183 178 166 185 118 126 115 172 129 133 149 159 172 193 192 162 175 157 173 163 172 179 178 183 182 187 185 186 203 200 206 206 213 221 225 231 240 241 234 233 243 250 256 253 247 266 263
229 228 206 154 119 103 95 131 158 153 140 148 160 166 175 194 191 172 171 165 167 175 168 176 176 177 183 181 189 194 197 206 210 206 219 224 222 230 234 247 247 236 238 242 247 252 264 270 263
241 229 130 209 163 175 133 256 184 165 152 159 165 170 177 183 182 179 178 175 173 178 174 172 172 179 181 187 191 201 219 225 204 205 218 209 216 218 230 249 252 241 237 243 242 247 247 248 262
243 12 223 187 194 181 162 204 221 178 165 165 171 170 173 176 177 177 188 176 176 181 177 180 183 189 189 190 193 195 203 214 211 205 210 208 209 207 215 239 246 232 231 229 237 247 268 259 276
249 219 179 167 193 175 92 296 244 191 168 172 170 166 170 175 173 172 181 183 182 185 183 180 184 188 192 188 192 191 198 200 200 206 212 212 198 193 184 221 227 224 225 231 233 242 251 259 265
351 331 360 202 109 90 158 255 292 234 170 166 160 167 168 178 172 171 179 188 188 182 178 181 182 184 185 181 181 191 211 194 204 210 210 209 201 204 205 216 216 219 217 217 225 234 250 257 269
302 272 300 100 70 132 220 231 242 53 54 168 158 172 173 179 163 167 171 187 176 174 177 175 179 184 189 188 190 199 211 222 222 224 229 226 221 214 218 218 213 217 221 221 221 230 256 266 261
274 72 50 240 315 304 281 23 47 355 36 15 338 178 183 177 161 161 148 183 178 171 175 177 176 181 191 192 190 192 201 211 211 218 223 218 216 211 220 223 221 219 217 216 217 218 225 235 255
306 63 24 333 7 266 211 186 351 339 323 5 304 338 176 136 86 57 24 326 316 172 180 182 183 187 195 196 193 197 204 205 215 213 221 220 220 219 225 225 229 230 222 218 223 219 215 223 244
268 21 330 286 275 317 296 74 275 347 341 5 356 270 344 97 157 150 229 233 259 239 173 182 185 190 197 208 216 209 208 221 226 219 221 225 222 223 226 231 232 236 233 233 231 231 224 230 240
290 304 291 278 229 348 7 110 274 221 223 248 239 296 165 162 173 153 215 303 211 235 177 177 184 191 197 202 206 208 216 220 222 228 217 223 221 228 233 236 241 242 241 239 237 237 238 232 238
291 279 316 333 44 211 347 65 242 234 235 207 214 259 82 124 146 136 199 238 250 237 171 169 179 189 197 206 207 207 218 223 225 221 212 213 216 227 238 240 246 244 238 239 236 240 245 247 239
255 205 183 213 174 221 53 97 288 252 237 282 225 240 84 83 59 159 212 230 229 237 167 170 185 188 194 203 211 218 222 226 228 225 218 222 228 237 243 214 299 259 244 237 236 239 244 244 245
263 273 246 186 184 86 6 299 345 13 336 279 269 85 82 87 219 50 35 65 142 195 180 181 187 189 190 205 212 220 227 223 227 233 234 230 234 247 232 230 247 234 240 244 240 239 241 241 243
262 259 344 345 89 32 18 282 254 46 253 260 105 109 105 77 16 39 48 53 42 68 203 183 204 202 170 204 219 222 229 233 237 238 241 244 249 258 250 239 228 230 237 240 241 242 244 245 241
280 267 313 100 115 137 154 254 194 223 236 284 122 116 135 127 131 97 78 68 32 31 51 52 209 220 203 213 233 229 222 235 238 236 240 248 252 248 264 282 261 243 250 247 251 252 253 250 249
47 10 35 101 294 163 135 264 147 202 242 193 97 127 157 140 94 109 79 69 44 28 360 18 27 35 2 345 311 286 230 224 230 240 250 259 264 255 228 263 262 257 259 262 259 263 263 260 251